FW8343 Weather Reports


Display with metric or nautical units.
time (UTC)temp
F
wind
direction
speed
MPH
gust
MPH
rain 1hr
in
rain 24hr
in
rain mn
in
humidity
%
barometer
mb
20260903005521 72 0 0.0 0.0 0.00 0.00 0.00 70 1014.4
20260903005021 73 0 0.0 0.0 0.00 0.00 0.00 68 1014.4
20260903004535 73 0 0.0 0.0 0.00 0.00 0.00 67 1014.5
20260903004021 74 0 0.0 0.0 0.00 0.00 0.00 67 1014.4
20260903003518 74 0 0.0 0.0 0.00 0.00 0.00 66 1014.4
20260903003036 75 0 0.0 0.0 0.00 0.00 0.00 66 1014.4
20260903002516 75 0 0.0 0.0 0.00 0.00 0.00 66 1014.3
20260903002024 76 0 0.0 0.0 0.00 0.00 0.00 66 1014.3
20260903001537 76 0 0.0 0.0 0.00 0.00 0.00 65 1014.2
20260903001021 76 0 0.0 1.0 0.00 0.00 0.00 66 1014.2
20260903000521 76 0 0.0 2.0 0.00 0.00 0.00 64 1014.2
20260903000034 77 0 0.0 2.0 0.00 0.00 0.00 65 1014.2
20260902235521 77 0 0.0 0.0 0.00 0.00 0.00 64 1014.1
20260902235024 78 0 0.0 1.0 0.00 0.00 0.00 64 1014.2
20260902234539 78 0 0.0 3.0 0.00 0.00 0.00 63 1014.1
20260902234019 78 0 0.0 3.0 0.00 0.00 0.00 63 1014.1
20260902233518 78 0 1.0 3.0 0.00 0.00 0.00 60 1014.0
20260902233035 79 0 0.0 3.0 0.00 0.00 0.00 61 1014.1
20260902232522 79 0 0.0 3.0 0.00 0.00 0.00 60 1013.9
20260902232022 79 0 0.0 3.0 0.00 0.00 0.00 59 1013.9
20260902231551 79 0 0.0 3.0 0.00 0.00 0.00 61 1013.9
20260902231015 80 218 0.0 2.0 0.00 0.00 0.00 61 1013.8
20260902230521 80 0 0.0 2.0 0.00 0.00 0.00 58 1013.7
20260902230039 80 0 0.0 3.0 0.00 0.00 0.00 58 1013.8
20260902225525 80 0 0.0 3.0 0.00 0.00 0.00 59 1013.8
20260902225021 81 0 0.0 2.0 0.00 0.00 0.00 58 1013.8
20260902224535 81 0 0.0 3.0 0.00 0.00 0.00 59 1013.7
20260902224022 81 0 0.0 3.0 0.00 0.00 0.00 56 1013.7
20260902223519 81 0 0.0 3.0 0.00 0.00 0.00 55 1013.6
20260902223036 82 0 0.0 3.0 0.00 0.00 0.00 56 1013.6
20260902222519 82 0 0.0 3.0 0.00 0.00 0.00 57 1013.6
20260902222016 82 172 0.0 6.0 0.00 0.00 0.00 55 1013.5
20260902221538 82 172 0.0 6.0 0.00 0.00 0.00 54 1013.6
20260902221020 82 151 0.0 3.0 0.00 0.00 0.00 49 1013.5
20260902220521 82 0 0.0 3.0 0.00 0.00 0.00 51 1013.5
20260902220036 82 182 1.0 5.0 0.00 0.00 0.00 47 1013.4
20260902215521 82 0 0.0 5.0 0.00 0.00 0.00 50 1013.4
20260902215020 82 226 3.0 5.0 0.00 0.00 0.00 51 1013.4
20260902214544 82 349 0.0 2.0 0.00 0.00 0.00 50 1013.4
20260902214020 81 349 0.0 2.0 0.00 0.00 0.00 52 1013.5
20260902213523 81 182 0.0 2.0 0.00 0.00 0.00 48 1013.5
20260902213038 82 0 0.0 3.0 0.00 0.00 0.00 51 1013.5
20260902212519 82 182 1.0 4.0 0.00 0.00 0.00 48 1013.6
20260902212016 82 182 1.0 4.0 0.00 0.00 0.00 49 1013.6
20260902211536 82 0 0.0 4.0 0.00 0.00 0.00 49 1013.7
20260902211023 82 0 1.0 4.0 0.00 0.00 0.00 48 1013.7
20260902210521 82 229 1.0 5.0 0.00 0.00 0.00 51 1013.8
20260902210039 81 0 2.0 5.0 0.00 0.00 0.00 47 1013.7
20260902205519 81 190 0.0 4.0 0.00 0.00 0.00 53 1013.7
20260902205021 81 142 0.0 5.0 0.00 0.00 0.00 55 1013.7
20260902204536 80 221 2.0 7.0 0.00 0.00 0.00 53 1013.7
20260902204019 80 180 3.0 7.0 0.00 0.00 0.00 57 1013.8
20260902203516 80 229 1.0 5.0 0.00 0.00 0.00 54 1013.8
20260902203038 80 5 0.0 5.0 0.00 0.00 0.00 53 1013.9
20260902202518 80 0 0.0 5.0 0.00 0.00 0.00 54 1014.0
20260902202019 80 148 3.0 5.0 0.00 0.00 0.00 58 1013.9
20260902201533 80 0 0.0 3.0 0.00 0.00 0.00 53 1013.9
20260902201019 80 0 0.0 3.0 0.00 0.00 0.00 55 1013.9
20260902200524 80 124 2.0 5.0 0.00 0.00 0.00 51 1013.9
20260902200033 80 146 2.0 6.0 0.00 0.00 0.00 57 1014.1
20260902195521 80 163 4.0 6.0 0.00 0.00 0.00 54 1014.1
20260902195020 80 179 0.0 4.0 0.00 0.00 0.00 49 1014.1
20260902194536 80 0 1.0 4.0 0.00 0.00 0.00 49 1014.2
20260902194019 80 173 1.0 3.0 0.00 0.00 0.00 56 1014.3
20260902193518 80 0 1.0 3.0 0.00 0.00 0.00 52 1014.3
20260902193042 80 0 1.0 3.0 0.00 0.00 0.00 55 1014.3
20260902192516 80 130 1.0 3.0 0.00 0.00 0.00 56 1014.3
20260902192020 80 130 1.0 4.0 0.00 0.00 0.00 53 1014.3
20260902191536 80 130 2.0 4.0 0.00 0.00 0.00 51 1014.3
20260902191020 80 0 1.0 7.0 0.00 0.00 0.00 51 1014.3
20260902190545 80 130 2.0 7.0 0.00 0.00 0.00 53 1014.2
20260902190035 80 138 3.0 6.0 0.00 0.00 0.00 52 1014.3
20260902185520 81 194 2.0 5.0 0.00 0.00 0.00 55 1014.4
20260902185021 81 164 0.0 3.0 0.00 0.00 0.00 52 1014.4
20260902184537 81 316 0.0 3.0 0.00 0.00 0.00 49 1014.4
20260902184019 81 0 0.0 4.0 0.00 0.00 0.00 53 1014.4
20260902183519 80 232 1.0 5.0 0.00 0.00 0.00 53 1014.4
20260902183035 79 0 1.0 5.0 0.00 0.00 0.00 54 1014.5
20260902182520 78 186 1.0 9.0 0.00 0.00 0.00 57 1014.6
20260902182019 78 147 2.0 9.0 0.00 0.00 0.00 62 1014.7
20260902181539 78 144 5.0 9.0 0.00 0.00 0.00 58 1014.8
20260902181016 78 149 2.0 7.0 0.00 0.00 0.00 60 1014.9
20260902180519 78 190 2.0 7.0 0.00 0.00 0.00 59 1014.7
20260902180036 78 144 3.0 6.0 0.00 0.00 0.00 56 1014.7
20260902175520 78 215 2.0 4.0 0.00 0.00 0.00 61 1014.9
20260902175020 79 165 0.0 5.0 0.00 0.00 0.00 57 1014.9
20260902174537 78 229 2.0 5.0 0.00 0.00 0.00 58 1015.0
20260902174023 79 229 2.0 6.0 0.00 0.00 0.00 56 1015.1
20260902173520 79 228 2.0 6.0 0.00 0.00 0.00 56 1015.3
20260902173037 78 26 0.0 4.0 0.00 0.00 0.00 56 1015.4
20260902172521 78 0 0.0 3.0 0.00 0.00 0.00 60 1015.3
20260902172019 77 0 0.0 3.0 0.00 0.00 0.00 62 1015.2
20260902171539 76 0 1.0 5.0 0.00 0.00 0.00 65 1015.2
20260902171023 76 147 2.0 5.0 0.00 0.00 0.00 65 1015.1
20260902170523 76 135 3.0 5.0 0.00 0.00 0.00 63 1015.0
20260902170036 76 148 2.0 6.0 0.00 0.00 0.00 68 1014.9
20260902165528 76 148 1.0 6.0 0.00 0.00 0.00 68 1015.0
20260902165020 76 142 3.0 5.0 0.00 0.00 0.00 66 1015.0
20260902164537 76 152 0.0 5.0 0.00 0.00 0.00 68 1015.1
20260902164019 75 152 1.0 5.0 0.00 0.00 0.00 69 1015.1
20260902163520 75 152 2.0 5.0 0.00 0.00 0.00 67 1015.0
20260902163032 75 134 2.0 5.0 0.00 0.00 0.00 66 1015.1
20260902162516 75 156 2.0 7.0 0.00 0.00 0.00 67 1015.2
20260902162016 75 169 1.0 7.0 0.00 0.00 0.00 67 1015.1
20260902161539 74 155 3.0 7.0 0.00 0.00 0.00 69 1015.2
20260902161022 74 174 1.0 6.0 0.00 0.00 0.00 67 1015.1
20260902160525 74 174 2.0 5.0 0.00 0.00 0.00 70 1015.2
20260902160046 74 174 1.0 5.0 0.00 0.00 0.00 71 1015.2
20260902155521 74 174 1.0 5.0 0.00 0.00 0.00 69 1015.1
20260902155021 73 174 1.0 4.0 0.00 0.00 0.00 70 1015.2
20260902154536 74 178 1.0 4.0 0.00 0.00 0.00 72 1015.2
20260902154019 73 178 1.0 4.0 0.00 0.00 0.00 72 1015.3
20260902153519 73 178 1.0 4.0 0.00 0.00 0.00 71 1015.3
20260902153034 72 0 1.0 4.0 0.00 0.00 0.00 76 1015.3
20260902152518 72 178 1.0 4.0 0.00 0.00 0.00 75 1015.3
20260902152016 72 178 1.0 5.0 0.00 0.00 0.00 76 1015.1
20260902151533 71 172 2.0 5.0 0.00 0.00 0.00 77 1015.3
20260902151019 71 172 1.0 5.0 0.00 0.00 0.00 77 1015.2
20260902150520 71 172 1.0 5.0 0.00 0.00 0.00 77 1015.1
20260902150035 71 172 2.0 5.0 0.00 0.00 0.00 77 1015.2
20260902145521 71 189 1.0 4.0 0.00 0.00 0.00 77 1015.2
20260902145023 70 0 2.0 8.0 0.00 0.00 0.00 78 1015.3
20260902144534 70 189 3.0 8.0 0.00 0.00 0.00 79 1015.3
20260902144018 70 186 3.0 7.0 0.00 0.00 0.00 78 1015.2
20260902143519 70 150 2.0 9.0 0.00 0.00 0.00 81 1015.1
20260902143034 69 182 4.0 9.0 0.00 0.00 0.00 79 1015.2
20260902142518 69 171 3.0 10.0 0.00 0.00 0.00 79 1015.5
20260902142020 69 189 5.0 10.0 0.00 0.00 0.00 80 1015.6
20260902141535 69 184 2.0 8.0 0.00 0.00 0.00 81 1015.6
20260902141021 69 222 2.0 8.0 0.00 0.00 0.00 81 1015.7
20260902140521 69 225 4.0 8.0 0.00 0.00 0.00 81 1015.6
20260902140036 69 186 3.0 8.0 0.00 0.00 0.00 81 1015.7
20260902135522 68 190 3.0 8.0 0.00 0.00 0.00 82 1015.7
20260902135020 68 225 3.0 7.0 0.00 0.00 0.00 82 1015.8
20260902134535 68 205 3.0 7.0 0.00 0.00 0.00 83 1015.9
20260902134018 67 200 2.0 8.0 0.00 0.00 0.00 83 1016.0
20260902133521 67 219 3.0 8.0 0.00 0.00 0.00 83 1016.0
20260902133035 67 188 3.0 8.0 0.00 0.00 0.00 86 1016.1
20260902132517 66 190 1.0 5.0 0.00 0.00 0.00 88 1016.0
20260902132020 65 0 2.0 4.0 0.00 0.00 0.00 87 1016.0
20260902131536 65 209 2.0 4.0 0.00 0.00 0.00 88 1016.0
20260902131020 64 209 0.0 1.0 0.00 0.00 0.00 89 1015.8
20260902130520 64 0 0.0 0.0 0.00 0.00 0.00 90 1015.7
20260902130035 64 0 0.0 0.0 0.00 0.00 0.00 90 1015.8
20260902125522 63 0 0.0 0.0 0.00 0.00 0.00 91 1015.7
20260902125024 63 0 0.0 0.0 0.00 0.00 0.00 92 1015.8
20260902124537 63 0 0.0 0.0 0.00 0.00 0.00 93 1015.9
20260902124017 63 0 0.0 2.0 0.00 0.00 0.00 94 1015.9
20260902123516 62 0 0.0 2.0 0.00 0.00 0.00 95 1015.6
20260902123036 61 0 0.0 0.0 0.00 0.00 0.00 95 1015.6
20260902122520 60 0 0.0 0.0 0.00 0.00 0.00 94 1015.4
20260902122019 60 0 0.0 0.0 0.00 0.00 0.00 94 1015.4
20260902121533 60 0 0.0 0.0 0.00 0.00 0.00 94 1015.3
20260902121020 60 0 0.0 0.0 0.00 0.00 0.00 94 1015.2
20260902120521 60 0 0.0 0.0 0.00 0.00 0.00 93 1015.2
20260902120037 60 0 0.0 0.0 0.00 0.00 0.00 92 1015.2
20260902115520 60 0 0.0 0.0 0.00 0.00 0.00 92 1015.1
20260902115020 61 0 0.0 0.0 0.00 0.00 0.00 93 1015.0
20260902114607 61 0 0.0 0.0 0.00 0.00 0.00 92 1015.0
20260902114019 61 0 0.0 0.0 0.00 0.00 0.00 92 1015.0
20260902113516 61 0 0.0 0.0 0.00 0.00 0.00 92 1015.0
20260902113035 61 0 0.0 0.0 0.00 0.00 0.00 91 1014.9
20260902112519 61 0 0.0 0.0 0.00 0.00 0.00 90 1014.7
20260902112021 61 0 0.0 0.0 0.00 0.00 0.00 90 1014.6
20260902111535 62 0 0.0 0.0 0.00 0.00 0.00 90 1014.7
20260902111020 62 0 0.0 0.0 0.00 0.00 0.00 89 1014.7
20260902110523 62 0 0.0 0.0 0.00 0.00 0.00 87 1014.4
20260902110032 63 0 0.0 0.0 0.00 0.00 0.00 88 1014.6
20260902105519 63 0 0.0 0.0 0.00 0.00 0.00 87 1014.6
20260902105022 63 0 0.0 1.0 0.00 0.00 0.00 87 1014.6
20260902104536 63 0 0.0 1.0 0.00 0.00 0.00 86 1014.7
20260902104018 64 0 0.0 0.0 0.00 0.00 0.00 86 1014.7
20260902103518 64 0 0.0 0.0 0.00 0.00 0.00 85 1014.9
20260902103034 64 0 0.0 0.0 0.00 0.00 0.00 85 1014.9
20260902102518 65 0 0.0 0.0 0.00 0.00 0.00 85 1015.0
20260902102018 65 0 0.0 0.0 0.00 0.00 0.00 84 1015.1
20260902101534 65 0 0.0 0.0 0.00 0.00 0.00 84 1015.3
20260902101019 65 0 0.0 0.0 0.00 0.00 0.00 84 1015.3
20260902100520 65 0 0.0 0.0 0.00 0.00 0.00 83 1015.3
20260902100048 65 0 0.0 0.0 0.00 0.00 0.00 83 1015.4
20260902095520 65 0 0.0 1.0 0.00 0.00 0.00 83 1015.5
20260902095019 66 0 0.0 2.0 0.00 0.00 0.00 84 1015.7
20260902094535 66 0 0.0 3.0 0.00 0.00 0.00 84 1015.6
20260902094018 65 0 1.0 3.0 0.00 0.00 0.00 86 1015.8
20260902093518 65 0 0.0 2.0 0.00 0.00 0.00 87 1016.0
20260902093047 64 0 0.0 1.0 0.00 0.00 0.00 86 1015.9
20260902092521 63 0 0.0 0.0 0.00 0.00 0.00 85 1015.7
20260902092022 63 0 0.0 0.0 0.00 0.00 0.00 85 1015.6
20260902091537 64 0 0.0 0.0 0.00 0.00 0.00 86 1015.5
20260902091019 64 0 0.0 0.0 0.00 0.00 0.00 86 1015.3
20260902090518 64 0 0.0 0.0 0.00 0.00 0.00 88 1015.2
20260902090034 64 0 0.0 0.0 0.00 0.00 0.00 87 1015.1
20260902085515 64 0 0.0 0.0 0.00 0.00 0.00 86 1015.1
20260902085016 64 0 0.0 0.0 0.00 0.00 0.00 85 1014.9
20260902084534 64 0 0.0 0.0 0.00 0.00 0.00 84 1014.9
20260902084023 64 0 0.0 0.0 0.00 0.00 0.00 86 1015.0
20260902083520 64 0 0.0 0.0 0.00 0.00 0.00 86 1015.0
20260902083039 64 0 0.0 0.0 0.00 0.00 0.00 84 1014.9
20260902082521 64 0 0.0 0.0 0.00 0.00 0.00 84 1014.9
20260902082021 64 0 0.0 0.0 0.00 0.00 0.00 84 1015.0
20260902081535 64 0 0.0 0.0 0.00 0.00 0.00 83 1015.1
20260902081018 64 0 0.0 0.0 0.00 0.00 0.00 82 1015.0
20260902080518 64 0 0.0 0.0 0.00 0.00 0.00 82 1015.0
20260902080033 64 0 0.0 0.0 0.00 0.00 0.00 83 1014.9
20260902075517 64 0 0.0 0.0 0.00 0.00 0.00 84 1014.8
20260902075025 65 0 0.0 0.0 0.00 0.00 0.00 83 1014.7
20260902074539 65 0 0.0 0.0 0.00 0.00 0.00 82 1014.6
20260902074020 65 0 0.0 0.0 0.00 0.00 0.00 82 1015.0
20260902073520 65 0 0.0 0.0 0.00 0.00 0.00 82 1015.2
20260902073036 65 0 0.0 0.0 0.00 0.00 0.00 84 1015.3
20260902072519 65 0 0.0 0.0 0.00 0.00 0.00 83 1015.2
20260902072016 65 0 0.0 0.0 0.00 0.00 0.00 85 1015.4
20260902071533 65 0 0.0 0.0 0.00 0.00 0.00 82 1015.3
20260902071016 66 0 0.0 0.0 0.00 0.00 0.00 81 1015.0
20260902070521 66 0 0.0 0.0 0.00 0.00 0.00 82 1015.1
20260902070035 66 0 0.0 0.0 0.00 0.00 0.00 81 1015.3
20260902065520 66 0 0.0 0.0 0.00 0.00 0.00 80 1015.0
20260902065020 66 0 0.0 0.0 0.00 0.00 0.00 83 1014.8
20260902064540 66 0 0.0 0.0 0.00 0.00 0.00 78 1014.9
20260902064022 66 0 0.0 0.0 0.00 0.00 0.00 78 1014.9
20260902063525 66 0 0.0 0.0 0.00 0.00 0.00 78 1014.8
20260902063036 66 0 0.0 0.0 0.00 0.00 0.00 79 1014.7
20260902062519 66 0 0.0 0.0 0.00 0.00 0.00 80 1015.0
20260902062021 66 0 0.0 0.0 0.00 0.00 0.00 80 1015.3
20260902061544 66 0 0.0 0.0 0.00 0.00 0.00 77 1015.2
20260902061021 66 0 0.0 1.0 0.00 0.00 0.00 77 1015.2
20260902060519 66 0 0.0 1.0 0.00 0.00 0.00 77 1015.2
20260902060040 66 0 0.0 0.0 0.00 0.00 0.00 76 1015.2
20260902055525 66 0 0.0 0.0 0.00 0.00 0.00 76 1015.4
20260902055020 66 0 0.0 0.0 0.00 0.00 0.00 76 1015.4
20260902054540 66 0 0.0 0.0 0.00 0.00 0.00 75 1015.2
20260902054021 67 0 0.0 0.0 0.00 0.00 0.00 75 1015.2
20260902053521 67 0 0.0 0.0 0.00 0.00 0.00 74 1015.1
20260902053036 67 0 0.0 0.0 0.00 0.00 0.00 75 1015.1
20260902052521 67 0 0.0 0.0 0.00 0.00 0.00 75 1015.3
20260902052026 66 0 0.0 0.0 0.00 0.00 0.00 75 1015.3
20260902051535 66 0 0.0 0.0 0.00 0.00 0.00 76 1015.3
20260902051018 66 0 0.0 0.0 0.00 0.00 0.00 76 1015.4
20260902050518 66 0 0.0 0.0 0.00 0.00 0.00 77 1015.5
20260902050040 66 0 0.0 0.0 0.00 0.00 0.00 77 1015.5
20260902045519 66 0 0.0 0.0 0.00 0.00 0.00 76 1015.5
20260902045020 66 0 0.0 0.0 0.00 0.00 0.00 76 1015.5
20260902044535 66 0 0.0 0.0 0.00 0.00 0.00 75 1015.4
20260902044020 66 0 0.0 0.0 0.00 0.00 0.00 76 1015.5
20260902043521 66 0 0.0 2.0 0.00 0.00 0.00 74 1015.6
20260902043036 66 0 0.0 2.0 0.00 0.00 0.00 75 1015.8
20260902042519 66 210 0.0 2.0 0.00 0.00 0.00 78 1015.8
20260902042019 66 0 0.0 0.0 0.00 0.00 0.00 77 1015.6
20260902041532 66 0 0.0 0.0 0.00 0.00 0.00 74 1015.7
20260902041016 66 0 0.0 0.0 0.00 0.00 0.00 74 1015.5
20260902040518 66 0 0.0 0.0 0.00 0.00 0.00 73 1015.5
20260902040034 66 0 0.0 0.0 0.00 0.00 0.00 73 1015.4
20260902035525 66 0 0.0 0.0 0.00 0.00 0.00 73 1015.3
20260902035026 66 0 0.0 0.0 0.00 0.00 0.00 73 1015.3
20260902034533 65 0 0.0 0.0 0.00 0.00 0.00 74 1015.4
20260902034019 65 0 0.0 0.0 0.00 0.00 0.00 74 1015.4
20260902033521 65 0 0.0 0.0 0.00 0.00 0.00 76 1015.4
20260902033041 65 0 0.0 0.0 0.00 0.00 0.00 78 1015.3
20260902032519 65 0 0.0 0.0 0.00 0.00 0.00 79 1015.3
20260902032024 65 0 0.0 0.0 0.00 0.00 0.00 79 1015.2
20260902031536 64 0 0.0 0.0 0.00 0.00 0.00 79 1015.2
20260902031018 64 0 0.0 0.0 0.00 0.00 0.00 78 1015.1
20260902030516 64 0 0.0 0.0 0.00 0.00 0.00 77 1015.0
20260902030035 64 0 0.0 0.0 0.00 0.00 0.00 76 1015.0
20260902025521 65 0 0.0 0.0 0.00 0.00 0.00 75 1015.3
20260902025022 65 0 0.0 0.0 0.00 0.00 0.00 73 1015.2
20260902024539 66 0 0.0 0.0 0.00 0.00 0.00 72 1015.1
20260902024018 67 0 0.0 0.0 0.00 0.00 0.00 71 1015.1
20260902023521 68 0 0.0 0.0 0.00 0.00 0.00 69 1015.0
20260902023039 68 0 0.0 0.0 0.00 0.00 0.00 68 1015.1
20260902022521 69 0 0.0 0.0 0.00 0.00 0.00 68 1015.1
20260902022020 69 0 0.0 0.0 0.00 0.00 0.00 70 1015.1
20260902021545 69 0 0.0 0.0 0.00 0.00 0.00 66 1015.2
20260902021016 69 0 0.0 0.0 0.00 0.00 0.00 66 1015.2
20260902020517 69 0 0.0 0.0 0.00 0.00 0.00 65 1015.1
20260902020035 70 0 0.0 0.0 0.00 0.00 0.00 65 1015.1
20260902015520 70 0 0.0 0.0 0.00 0.00 0.00 64 1015.0
20260902015023 70 0 0.0 0.0 0.00 0.00 0.00 65 1015.0
20260902014538 70 0 0.0 0.0 0.00 0.00 0.00 64 1014.9
20260902014020 71 0 0.0 0.0 0.00 0.00 0.00 63 1014.8
20260902013524 71 0 0.0 0.0 0.00 0.00 0.00 63 1014.7
20260902013037 71 0 0.0 0.0 0.00 0.00 0.00 63 1014.7
20260902012521 72 0 0.0 0.0 0.00 0.00 0.00 62 1014.7
20260902012019 72 0 0.0 0.0 0.00 0.00 0.00 60 1014.6
20260902011534 72 0 0.0 0.0 0.00 0.00 0.00 60 1014.6
20260902011019 73 0 0.0 0.0 0.00 0.00 0.00 59 1014.6
20260902010522 73 0 0.0 0.0 0.00 0.00 0.00 58 1014.5
20260902010032 73 0 0.0 0.0 0.00 0.00 0.00 58 1014.5